Tracking 28799 objects as of 18-Apr-2024
HD Live streaming from Space Station
objects crossing your sky now

COSMOS 2251 DEB

Track COSMOS 2251 DEB now!
10-day predictions


NORAD ID: 34560
Int'l Code: 1993-036UW
Perigee: 705.4 km
Apogee: 741.0 km
Inclination: 74.0 °
Period: 99.1 minutes
Semi major axis: 7094 km
RCS: 0.031 m2 (small)
Launch date: June 16, 1993
Source: Commonwealth of Independent States (former USSR) (CIS)
Launch site: PLESETSK MISSILE AND SPACE COMPLEX (PKMTR)

Note: This is SATELLITE DEBRIS
Your satellite tracking list
Your tracking list is empty




NASA's NSSDC Master Catalog

Two Line Element Set (TLE):
1 34560U 93036UW  24108.70055604  .00016444  00000-0  39713-2 0  9995
2 34560  74.0251 221.3682 0025079  83.2837  38.9168 14.52929805794186
Source of the keplerian elements: AFSPC